INTELSAT 33E (IS-33E) (41748 NORAD) Tracking and Keplerian Element Data

This shows tracking and keplerian element data for the satellite.

Feedback or suggestion? Click here.




ElementValue
Catalog41748
NameINTELSAT 33E (IS-33E)
Epoch Orbit2261
Epoch Day269.57757546
Epoch Year2022
RAAN262.7211
Inclination0.0176
Eccentricity0.0001772
Argument of Perigee277.5876
Mean Anonmoly92.9756
Mean Motion1.00272254
Decay Rate5.1E-07
L11 41748U 16053B 22269.57757546 .00000051 00000+0 00000+0 0 9990
L22 41748 0.0176 262.7211 0001772 277.5876 92.9756 1.00272254 22612

Live tracking and technical data element details for INTELSAT 33E (IS-33E) (NORAD 41748). INTELSAT 33E (IS-33E) can be tracked NOW for your location showing map with azimuth and elevation plus other details from your city location.

Track the satellite on the map from your city or location and see movement details for azimuth, elevation, latitude, longitude, range, height, and movement on the map or in text.







IsCatalogInMostPopularTable: catalog: 41748, numindb: 621
Update: records affected: 1



GetName: 41748 INTELSAT 33E (IS-33E)

Hit Count: updated at: Wed, 28 Sep 2022 22:52:45 GMT